Location: Spring Creek
(38.2870°N, 100.2160°W)
Time: 23:58:02
(UTC+00:00)

USA 281 - Pass Details

Date: 08 May 2021
Orbit: 1078 x 1081 km, 106.0° (Epoch: 18 June)

Event Time Altitude Azimuth Distance (km) Brightness Sun altitude
Exits shadow 08:21:20 71° 263° (W) 1,137 3.1 -29.4°
Drops below altitude 10° 08:27:42 10° 333° (NNW) 2,926 5.8 -28.8°
Sets 08:30:14 0° 336° (NNW) 3,885 6.6 -28.5°
